Location: Domont
(49.0278°N, 2.3264°E)
Time: 00:38:08
(UTC+00:00)

Orbus 7S? - Pass Details

Date: 01 June 2022
Orbit: 340 x 6374 km, 56.9° (Epoch: 04 July)

Event Time Altitude Azimuth Distance (km) Brightness Sun altitude
Exits shadow 00:17:04 - 232° (SW) 4,533 7.5 -18.7°
Reaches altitude 10° 00:17:43 10° 232° (SW) 4,382 7.5 -18.6°
Maximum altitude 00:31:15 90° 324° (NW) 3,629 7.3 -18.3°
Drops below altitude 10° 01:07:11 10° 61° (ENE) 9,859 10.3 -16.8°
Sets 01:16:03 0° 63° (ENE) 11,058 10.7 -16.3°
